Orbital Elements at Epoch 2459200.5 (2020-Dec-17.0) TDB
Reference: JPL 32 (heliocentric ecliptic J2000)
Element | Value | Uncertainty (1-sigma) | Units |
e | .1298723746799802 | 4.1485e-08 | |
a | 3.227990054897873 | 1.6945e-08 | au |
q | 2.808763321024927 | 1.3482e-07 | au |
i | 1.701754149378732 | 3.7599e-06 | deg |
node | 68.28507821536122 | 0.00014428 | deg |
peri | 319.4967813412566 | 0.00014504 | deg |
M | 8.293513412120493 | 1.3322e-05 | deg |
tp | 2459151.698546243277 (2020-Oct-29.19854624) | 7.8497e-05 | TDB |
period | 2118.345082404403 5.80 | 1.668e-05 4.567e-08 | d yr |
n | .169943982682645 | 1.3382e-09 | deg/d |
Q | 3.647216788770819 | 1.9146e-08 | au |
|
| | Orbit Determination Parameters
Additional Information
|